Location: Navajo
(48.7922°N, 105.0603°W)
Time: 05:20:24
(UTC+00:00)

KKS-1 - Pass Details

Date: 03 July 2022
Orbit: 634 x 649 km, 98.2° (Epoch: 18 August)

Event Time Altitude Azimuth Distance (km) Brightness Sun altitude
Rises 04:38:11 0° 19° (NNE) 2,978 ? -11.2°
Reaches altitude 10° 04:40:31 10° 27° (NNE) 2,061 ? -11.4°
Maximum altitude 04:44:47 42° 98° (E) 927 ? -11.8°
Enters shadow 04:47:58 16° 164° (SSE) 1,653 ? -12.0°
